When you browse on this site, cookies collect data to enhance your experience and personalize the content and advertising you see.
Visit our Privacy Policy to learn more. By continuing to use the site, you agree to this use of cookies and data.
  • Em Portugal
  • Lista de países
  • Para 7 dias
  • Temperatura da água
  • Mapas de satélite
  • Mapa do tempo
  • Widgets de tempo
  • user-avatar
    Iniciar Sessão

    Previsão horária em Marinka

    Hoje, 13 Dezembro, Quinta-feira

    Tempo Temperatura Precipitação Vento Pressão Humidade
    00:00 -1°C° 0 mm 4 m/s 744 mmHg 85%
    01:00 -1°C° 0 mm 4 m/s 745 mmHg 86%
    02:00 -2°C° 0 mm 4 m/s 745 mmHg 87%
    03:00 -1°C° 0 mm 3 m/s 745 mmHg 89%
    04:00 -1°C° 0 mm 3 m/s 746 mmHg 88%
    05:00 -1°C° 0 mm 3 m/s 746 mmHg 88%
    06:00 -2°C° 0 mm 4 m/s 746 mmHg 87%
    07:00 -1°C° 0 mm 3 m/s 747 mmHg 87%
    08:00 -1°C° 0 mm 3 m/s 747 mmHg 87%
    09:00 -1°C° 0 mm 3 m/s 748 mmHg 87%
    10:00 -1°C° 0 mm 3 m/s 748 mmHg 84%
    11:00 -1°C° 0 mm 4 m/s 748 mmHg 81%
    12:00 0°C° 0 mm 4 m/s 749 mmHg 78%
    13:00 0°C° 0 mm 4 m/s 749 mmHg 77%
    14:00 +1°C° 0 mm 4 m/s 749 mmHg 76%
    15:00 +2°C° 0 mm 3 m/s 749 mmHg 75%
    16:00 +1°C° 0 mm 3 m/s 750 mmHg 77%
    17:00 +1°C° 0 mm 3 m/s 750 mmHg 78%
    18:00 +2°C° 0 mm 2 m/s 751 mmHg 80%
    19:00 +1°C° 0 mm 2 m/s 751 mmHg 81%
    20:00 +1°C° 0 mm 2 m/s 751 mmHg 82%
    21:00 +1°C° 0 mm 2 m/s 751 mmHg 83%
    22:00 -1°C° 0 mm 2 m/s 751 mmHg 84%
    23:00 -1°C° 0 mm 2 m/s 751 mmHg 85%

    Amanhã, 14 Dezembro, Sexta-feira

    Tempo Temperatura Precipitação Vento Pressão Humidade
    00:00 -1°C° 0 mm 2 m/s 751 mmHg 86%
    01:00 -1°C° 0 mm 2 m/s 751 mmHg 87%
    02:00 -1°C° 0 mm 2 m/s 752 mmHg 88%
    03:00 -1°C° 0 mm 3 m/s 752 mmHg 88%
    04:00 -1°C° 0 mm 2 m/s 752 mmHg 89%
    05:00 -1°C° 0 mm 2 m/s 752 mmHg 90%
    06:00 -1°C° 0 mm 2 m/s 752 mmHg 91%
    07:00 -1°C° 0 mm 2 m/s 752 mmHg 91%
    08:00 -1°C° 0 mm 2 m/s 753 mmHg 91%
    09:00 +1°C° 0 mm 1 m/s 753 mmHg 92%
    10:00 +2°C° 0 mm 1 m/s 753 mmHg 87%
    11:00 +3°C° 0 mm 1 m/s 753 mmHg 83%
    12:00 +4°C° 0 mm 1 m/s 753 mmHg 78%
    13:00 +4°C° 0 mm 1 m/s 754 mmHg 78%
    14:00 +4°C° 0 mm 1 m/s 754 mmHg 78%
    15:00 +3°C° 0 mm 0 m/s 754 mmHg 77%
    16:00 +2°C° 0 mm 0 m/s 754 mmHg 80%
    17:00 +2°C° 0 mm 0 m/s 754 mmHg 82%
    18:00 +1°C° 0 mm 0 m/s 754 mmHg 84%
    19:00 +1°C° 0 mm 0 m/s 755 mmHg 85%
    20:00 +1°C° 0 mm 1 m/s 755 mmHg 85%
    21:00 +1°C° 0 mm 1 m/s 755 mmHg 86%
    22:00 +1°C° 0 mm 1 m/s 755 mmHg 86%
    23:00 +1°C° 0 mm 1 m/s 755 mmHg 86%

    Depois de amanhã, 15 Dezembro, Sábado

    Tempo Temperatura Precipitação Vento Pressão Humidade
    00:00 +1°C° 0 mm 1 m/s 756 mmHg 86%
    01:00 +1°C° 0 mm 1 m/s 756 mmHg 86%
    02:00 +1°C° 0 mm 1 m/s 756 mmHg 87%
    03:00 0°C° 0 mm 0 m/s 756 mmHg 87%
    04:00 0°C° 0 mm 0 m/s 756 mmHg 87%
    05:00 0°C° 0 mm 0 m/s 756 mmHg 87%
    06:00 -1°C° 0 mm 0 m/s 756 mmHg 87%
    07:00 0°C° 0 mm 0 m/s 757 mmHg 87%
    08:00 0°C° 0 mm 0 m/s 757 mmHg 87%
    09:00 0°C° 0 mm 0 m/s 757 mmHg 86%
    10:00 +1°C° 0 mm 0 m/s 757 mmHg 82%
    11:00 +1°C° 0 mm 0 m/s 758 mmHg 78%
    12:00 +2°C° 0 mm 0 m/s 758 mmHg 73%
    13:00 +2°C° 0 mm 0 m/s 758 mmHg 74%
    14:00 +3°C° 0 mm 0 m/s 758 mmHg 74%
    15:00 +4°C° 0 mm 1 m/s 758 mmHg 75%
    16:00 +3°C° 0 mm 1 m/s 758 mmHg 79%
    17:00 +2°C° 0 mm 1 m/s 758 mmHg 82%
    18:00 -1°C° 0 mm 2 m/s 759 mmHg 86%
    19:00 -1°C° 0 mm 2 m/s 759 mmHg 87%
    20:00 -2°C° 0 mm 2 m/s 759 mmHg 88%
    21:00 -2°C° 0 mm 2 m/s 759 mmHg 89%
    22:00 -2°C° 0 mm 2 m/s 759 mmHg 89%
    23:00 -2°C° 0 mm 2 m/s 759 mmHg 90%

    16 Dezembro, Domingo

    Tempo Temperatura Precipitação Vento Pressão Humidade
    00:00 -4°C° 0 mm 3 m/s 759 mmHg 90%
    01:00 -4°C° 0 mm 3 m/s 759 mmHg 90%
    02:00 -4°C° 0 mm 3 m/s 759 mmHg 89%
    03:00 -4°C° 0 mm 3 m/s 759 mmHg 88%
    04:00 -4°C° 0 mm 3 m/s 759 mmHg 87%
    05:00 -4°C° 0 mm 3 m/s 759 mmHg 86%
    06:00 -5°C° 0 mm 4 m/s 759 mmHg 85%
    07:00 -5°C° 0 mm 4 m/s 759 mmHg 85%
    08:00 -5°C° 0 mm 4 m/s 759 mmHg 85%
    09:00 -5°C° 0 mm 4 m/s 759 mmHg 85%
    10:00 -5°C° 0 mm 5 m/s 759 mmHg 82%
    11:00 -4°C° 0 mm 5 m/s 759 mmHg 79%
    12:00 -4°C° 0 mm 5 m/s 759 mmHg 76%
    13:00 -4°C° 0 mm 5 m/s 759 mmHg 76%
    14:00 -4°C° 0 mm 5 m/s 758 mmHg 76%
    15:00 -4°C° 0 mm 5 m/s 758 mmHg 76%
    16:00 -4°C° 0 mm 5 m/s 758 mmHg 78%
    17:00 -5°C° 0 mm 5 m/s 758 mmHg 80%
    18:00 -5°C° 0 mm 5 m/s 758 mmHg 82%
    19:00 -5°C° 0 mm 6 m/s 758 mmHg 82%
    20:00 -5°C° 0 mm 6 m/s 758 mmHg 82%
    21:00 -5°C° 0 mm 6 m/s 758 mmHg 83%
    22:00 -6°C° 0 mm 6 m/s 758 mmHg 82%
    23:00 -6°C° 0 mm 6 m/s 758 mmHg 82%

    17 Dezembro, Segunda-feira

    Tempo Temperatura Precipitação Vento Pressão Humidade
    00:00 -6°C° 0 mm 6 m/s 757 mmHg 82%
    01:00 -6°C° 0 mm 6 m/s 757 mmHg 81%
    02:00 -6°C° 0 mm 6 m/s 757 mmHg 80%
    03:00 -6°C° 0 mm 6 m/s 757 mmHg 79%
    04:00 -6°C° 0 mm 6 m/s 757 mmHg 77%
    05:00 -6°C° 0 mm 6 m/s 756 mmHg 75%
    06:00 -8°C° 0 mm 6 m/s 756 mmHg 73%
    07:00 -8°C° 0 mm 6 m/s 756 mmHg 70%
    08:00 -8°C° 0 mm 6 m/s 756 mmHg 68%
    09:00 -8°C° 0 mm 7 m/s 756 mmHg 65%
    10:00 -7°C° 0 mm 7 m/s 756 mmHg 62%
    11:00 -7°C° 0 mm 7 m/s 756 mmHg 58%
    12:00 -6°C° 0 mm 7 m/s 756 mmHg 55%
    13:00 -6°C° 0 mm 7 m/s 756 mmHg 55%
    14:00 -6°C° 0 mm 7 m/s 756 mmHg 55%
    15:00 -6°C° 0 mm 7 m/s 755 mmHg 55%
    16:00 -6°C° 0 mm 7 m/s 756 mmHg 56%
    17:00 -7°C° 0 mm 7 m/s 756 mmHg 58%
    18:00 -7°C° 0 mm 7 m/s 756 mmHg 60%
    19:00 -8°C° 0 mm 7 m/s 756 mmHg 61%
    20:00 -8°C° 0 mm 7 m/s 756 mmHg 63%
    21:00 -8°C° 0 mm 6 m/s 756 mmHg 65%
    22:00 -8°C° 0 mm 6 m/s 756 mmHg 67%
    23:00 -9°C° 0 mm 6 m/s 756 mmHg 70%

    18 Dezembro, Terça-feira

    Tempo Temperatura Precipitação Vento Pressão Humidade
    00:00 -9°C° 0 mm 6 m/s 756 mmHg 72%
    01:00 -9°C° 0 mm 6 m/s 756 mmHg 73%
    02:00 -9°C° 0 mm 6 m/s 756 mmHg 74%
    03:00 -9°C° 0 mm 6 m/s 756 mmHg 76%
    04:00 -9°C° 0 mm 6 m/s 756 mmHg 77%
    05:00 -9°C° 0 mm 6 m/s 756 mmHg 78%
    06:00 -9°C° 0 mm 6 m/s 756 mmHg 79%
    07:00 -9°C° 0 mm 6 m/s 756 mmHg 79%
    08:00 -9°C° 0 mm 6 m/s 756 mmHg 79%
    09:00 -9°C° 0 mm 6 m/s 756 mmHg 79%
    10:00 -8°C° 0 mm 6 m/s 756 mmHg 77%
    11:00 -8°C° 0 mm 6 m/s 756 mmHg 76%
    12:00 -8°C° 0 mm 6 m/s 756 mmHg 74%
    13:00 -6°C° 0 mm 6 m/s 756 mmHg 74%
    14:00 -6°C° 0 mm 6 m/s 756 mmHg 74%
    15:00 -6°C° 0 mm 6 m/s 756 mmHg 74%
    16:00 -6°C° 0 mm 6 m/s 756 mmHg 75%
    17:00 -6°C° 0 mm 6 m/s 756 mmHg 77%
    18:00 -6°C° 0 mm 6 m/s 756 mmHg 78%
    19:00 -6°C° 0 mm 6 m/s 756 mmHg 78%
    20:00 -6°C° 0 mm 6 m/s 756 mmHg 79%
    21:00 -6°C° 0 mm 6 m/s 756 mmHg 80%
    22:00 -6°C° 0 mm 6 m/s 756 mmHg 80%
    23:00 -6°C° 0 mm 6 m/s 756 mmHg 81%
    Mostrar mais